Location: *
(13.2257°S, 48.7193°W)
Time: 10:03:54
(UTC+00:00)

Cosmos 1782 Rocket - Pass Details

Date: 13 February 2026
Orbit: 600 x 625 km, 82.5° (Epoch: 10 March)

Event Time Altitude Azimuth Distance (km) Brightness Sun altitude
Rises 08:23:18 0° 182° (S) 2,872 7.2 -12.4°
Reaches altitude 10° 08:25:32 10° 180° (S) 1,967 6.4 -11.9°
Maximum altitude 08:29:53 75° 94° (E) 636 3.8 -10.9°
Drops below altitude 10° 08:34:13 10° 9° (N) 1,963 6.1 -9.9°
Sets 08:36:26 0° 7° (N) 2,866 6.9 -9.4°
